Location: Unspecified
(34.4950°S, 58.5160°W)
Time: 14:18:04
(UTC+00:00)

Cosmos 1655 Rocket - Pass Details

Date: 09 July 2022
Orbit: 971 x 1005 km, 83.0° (Epoch: 11 August)

Event Time Altitude Azimuth Distance (km) Brightness Sun altitude
Rises 10:05:41 0° 190° (S) 3,735 6.8 -11.2°
Reaches altitude 10° 10:08:15 10° 192° (SSW) 2,775 6.1 -10.7°
Maximum altitude 10:14:32 66° 272° (W) 1,075 4.0 -9.5°
Drops below altitude 10° 10:20:43 10° 353° (N) 2,721 6.5 -8.3°
Sets 10:23:13 0° 356° (N) 3,657 7.3 -7.8°
